Location: Cheching
(60.0667°N, 164.2167°W)
Time: 14:20:09
(UTC+00:00)

NOAA 15 - Pass Details

Date: 31 January 2021
Orbit: 798 x 812 km, 98.7° (Epoch: 05 March)

Event Time Altitude Azimuth Distance (km) Brightness Sun altitude
Rises 04:49:16 0° 150° (SSE) 3,311 7.6 -12.4°
Reaches altitude 10° 04:51:36 10° 149° (SSE) 2,386 6.9 -12.7°
Maximum altitude 04:56:51 70° 66° (ENE) 862 4.5 -13.3°
Drops below altitude 10° 05:02:09 10° 344° (NNW) 2,410 7.1 -13.9°
Sets 05:04:30 0° 343° (NNW) 3,347 7.9 -14.2°
